Simultaneous Nadir Overpasses (SNOs) Predictions

Prediction of SNOs between METOP-C and LANDSAT-8 Satellite Orbit:

Table of predicted SNOs for the next 14.0 days since TLE Epoch: 9/11/2021
Index Date (METOP-C) Time (METOP-C) Lat,Lon (METOP-C) SZA (METOP-C ) Date (LANDSAT-8) Time (LANDSAT-8) Lat,Lon (LANDSAT-8) SZA (LANDSAT-8 ) Distance(km) Time Diff (sec)
1 09/11/2021 08:50:48 81.16, 87.65 78.94 09/11/2021 08:52:00 81.16, 87.70 78.98 0.98 72
2 09/11/2021 09:41:27 -81.18,-104.53 100.99 09/11/2021 09:41:26 -81.18,-104.36 100.97 2.89 1
3 09/11/2021 10:31:32 81.36, 77.02 80.78 09/11/2021 10:30:19 81.72, 76.50 80.88 41.15 73
4 09/14/2021 04:25:06 81.18, 154.48 80.09 09/14/2021 04:26:14 81.18, 154.41 80.11 1.14 68
5 09/14/2021 05:15:45 -81.20, -37.64 99.83 09/14/2021 05:15:40 -81.20, -37.63 99.83 0.62 5
6 09/16/2021 23:59:27 81.17,-139.47 81.15 09/17/2021 00:00:30 81.17,-139.29 81.20 3.24 63
7 09/17/2021 00:50:05 -81.20, 28.86 98.72 09/17/2021 00:49:56 -81.19, 28.69 98.74 2.99 9
8 09/19/2021 19:33:46 81.18, -72.68 82.31 09/19/2021 19:34:45 81.18, -72.66 82.34 0.70 59
9 09/19/2021 20:24:26 -81.19, 94.97 97.64 09/19/2021 20:24:12 -81.18, 94.97 97.65 0.53 14
10 09/22/2021 15:08:05 81.18, -6.28 83.42 09/22/2021 15:09:00 81.17, -6.44 83.42 2.90 55



Historial Predications of SNOs between METOP-C and LANDSAT-8
